Weather reports worldwide

Advertisment
Holbeach, United Kingdom (3469): temperature & dewpoint: 17.03.2017 14:00:00 - 23.03.2017 14:00:00 (GMT)Holbeach, United Kingdom (3469): temperature -20cm & temperature -100cm: 17.03.2017 14:00:00 - 23.03.2017 14:00:00 (GMT)Holbeach, United Kingdom (3469): wind speed & gusts: 17.03.2017 14:00:00 - 23.03.2017 14:00:00 (GMT)Holbeach, United Kingdom (3469): wind direction: 17.03.2017 14:00:00 - 23.03.2017 14:00:00 (GMT)Holbeach, United Kingdom (3469): reduced air pressure: 17.03.2017 14:00:00 - 23.03.2017 14:00:00 (GMT)Holbeach, United Kingdom (3469): visibility: 17.03.2017 14:00:00 - 23.03.2017 14:00:00 (GMT)Holbeach, United Kingdom (3469): precipitation: 17.03.2017 14:00:00 - 23.03.2017 14:00:00 (GMT)
Date & Time tt [°C] td [°C] tt -20cm [°C] tt -100cm [°C] ff [km/h] ff [kn] fx [km/h] fx [kn] dd ppp [hPa] vv [km] rr [mm]
23.03.2017 14:00:00 9,7 6,7 - - 41 22 54 29 ENE 1020,0 10 0,0
23.03.2017 13:00:00 9,3 6,4 - - 41 22 54 29 ENE 1019,5 9 0,0
23.03.2017 12:00:00 9,6 6,6 - - 37 20 48 26 NE 1019,1 12 0,0
23.03.2017 11:00:00 9,3 7,3 - - 34 18 - - NE 1018,8 8 0,0
23.03.2017 10:00:00 9,1 7,0 - - 31 17 - - ENE 1018,4 7 0,0
23.03.2017 09:00:00 8,7 7,3 7,5 8,5 22 12 - - ENE 1017,7 5 0,0
23.03.2017 08:00:00 7,6 6,7 - - 21 11 - - ENE 1016,8 3,3 0,0
23.03.2017 07:00:00 7,3 6,8 - - 22 12 - - ENE 1015,9 2,9 0,0
23.03.2017 06:00:00 6,6 6,0 - - 16 9 - - E 1015,3 4,9 0,0
23.03.2017 05:00:00 6,9 6,3 - - 21 11 - - NE 1014,6 7 0,0
23.03.2017 04:00:00 6,2 5,7 - - 9 5 - - ENE 1014,3 6 0,8
23.03.2017 03:00:00 6,4 6,1 - - 11 6 - - E 1014,0 4,3 1,2
23.03.2017 02:00:00 6,3 5,8 - - 8 4 - - ESE 1013,5 5 0,2
23.03.2017 01:00:00 5,7 5,3 - - 11 6 - - ESE 1013,0 7 0,0
23.03.2017 00:00:00 4,3 4,1 - - 16 9 - - ESE 1012,6 10 0,0
22.03.2017 23:00:00 3,2 2,7 - - 15 8 - - ESE 1012,4 24 0,0
22.03.2017 22:00:00 3,9 3,3 - - 8 4 - - ESE 1012,0 35 0,0
22.03.2017 21:00:00 4,2 3,6 - - 16 9 - - SE 1011,3 50 0,0
22.03.2017 20:00:00 5,2 3,7 - - 13 7 - - SE 1010,4 45 0,0
22.03.2017 19:00:00 7,5 5,2 - - 13 7 - - S 1009,6 50 0,0
22.03.2017 18:00:00 8,0 5,5 - - 18 10 - - S 1008,4 45 0,0
22.03.2017 17:00:00 8,4 5,8 - - 24 13 48 26 S 1007,3 45 0,0
22.03.2017 16:00:00 8,3 6,1 - - 34 18 52 28 SSE 1006,5 29 0,0
22.03.2017 15:00:00 7,6 5,3 - - 34 18 50 27 SSE 1006,3 40 0,2
22.03.2017 14:00:00 6,7 5,2 - - 34 18 52 28 S 1006,5 11 1,6
22.03.2017 13:00:00 8,3 4,0 - - 29 16 50 27 SSE 1006,0 11 0,0
22.03.2017 12:00:00 9,4 3,0 - - 31 17 52 28 SSE 1005,9 40 0,0
22.03.2017 11:00:00 9,2 3,8 - - 31 17 48 26 SSE 1005,7 19 0,0
22.03.2017 10:00:00 8,2 2,9 - - 29 16 50 27 SSE 1005,7 30 0,0
22.03.2017 09:00:00 7,2 3,0 7,7 8,7 29 16 - - SSE 1005,7 30 0,0
22.03.2017 08:00:00 6,5 2,8 - - 26 14 - - SSE 1005,6 30 0,0
22.03.2017 07:00:00 5,2 2,7 - - 24 13 - - SE 1005,4 27 0,0
22.03.2017 06:00:00 5,3 2,8 - - 26 14 - - SSE 1005,4 30 0,0
22.03.2017 05:00:00 5,3 2,4 - - 24 13 - - SSE 1005,6 25 0,0
22.03.2017 04:00:00 5,0 2,2 - - 22 12 - - SSE 1006,0 35 0,0
22.03.2017 03:00:00 4,4 2,2 - - 21 11 - - SSE 1006,4 28 0,0
22.03.2017 02:00:00 4,3 2,4 - - 16 9 - - S 1006,9 26 0,0
22.03.2017 01:00:00 4,1 2,1 - - 13 7 - - S 1007,5 30 0,0
22.03.2017 00:00:00 4,3 2,1 - - 13 7 - - S 1007,6 45 0,0
21.03.2017 23:00:00 4,3 2,3 - - 16 9 - - SSW 1007,6 45 0,0
21.03.2017 22:00:00 4,6 2,8 - - 16 9 - - SSW 1007,8 35 0,0
21.03.2017 21:00:00 5,3 3,2 - - 26 14 - - WSW 1008,1 10 0,2
21.03.2017 20:00:00 5,5 2,7 - - 22 12 - - SSW 1008,4 10 0,0
21.03.2017 19:00:00 5,9 0,9 - - 16 9 - - SW 1007,9 10 0,0
21.03.2017 18:00:00 7,4 0,0 - - 28 15 48 26 WSW 1007,6 50 0,0
21.03.2017 17:00:00 9,1 0,9 - - 34 18 52 28 SW 1007,2 35 0,0
21.03.2017 16:00:00 9,9 -0,7 - - 39 21 55 30 W 1007,1 10 0,0
21.03.2017 15:00:00 9,4 -0,1 - - 31 17 54 29 W 1007,0 50 0,0
21.03.2017 14:00:00 9,7 -0,2 - - 35 19 59 32 W 1007,1 35 0,0
21.03.2017 13:00:00 8,2 -0,1 - - 52 28 59 32 W 1007,3 10 0,0
21.03.2017 12:00:00 8,8 -0,1 - - 41 22 57 31 W 1007,3 10 0,0
21.03.2017 11:00:00 7,8 0,4 - - 42 23 59 32 WSW 1007,2 29 0,0
21.03.2017 10:00:00 6,8 0,3 - - 39 21 57 31 W 1006,7 10 0,0
21.03.2017 09:00:00 5,9 1,5 8,0 8,5 35 19 48 26 WSW 1006,5 35 0,0
21.03.2017 08:00:00 4,6 1,0 - - 29 16 - - WSW 1006,0 35 0,0
21.03.2017 07:00:00 3,5 0,4 - - 26 14 - - WSW 1005,5 35 0,0
21.03.2017 06:00:00 3,4 0,6 - - 24 13 - - WSW 1004,9 40 0,0
21.03.2017 05:00:00 3,7 1,0 - - 26 14 - - WSW 1004,2 50 0,0
21.03.2017 04:00:00 4,7 2,1 - - 28 15 - - WSW 1003,8 50 0,0
21.03.2017 03:00:00 5,1 2,5 - - 29 16 50 27 WSW 1003,1 22 0,0
21.03.2017 02:00:00 5,4 3,8 - - 28 15 - - WSW 1002,8 29 0,0
21.03.2017 01:00:00 5,5 3,9 - - 24 13 - - SW 1002,4 40 0,0
21.03.2017 00:00:00 6,0 4,3 - - 24 13 50 27 SW 1002,6 45 0,0
20.03.2017 23:00:00 6,5 4,1 - - 29 16 - - SW 1002,6 45 0,0
20.03.2017 22:00:00 5,8 3,8 - - 21 11 - - SW 1002,2 50 0,0
20.03.2017 21:00:00 6,7 4,7 - - 24 13 - - WSW 1002,0 45 0,0
20.03.2017 20:00:00 7,2 5,5 - - 22 12 - - WSW 1001,7 40 0,0
20.03.2017 19:00:00 7,6 6,3 - - 16 9 - - SW 1001,2 50 0,0
20.03.2017 18:00:00 9,0 6,0 - - 24 13 - - WSW 1000,6 50 0,0
20.03.2017 17:00:00 10,3 5,8 - - 26 14 - - W 1000,3 50 0,0
20.03.2017 16:00:00 9,6 7,1 - - 28 15 - - WSW 999,8 45 0,0
20.03.2017 15:00:00 8,5 7,3 - - 18 10 - - W 999,8 40 1,2
20.03.2017 14:00:00 8,9 7,1 - - 28 15 48 26 NW 999,3 7 1,0
20.03.2017 13:00:00 9,9 9,1 - - 22 12 68 37 W 998,5 7 1,6
20.03.2017 12:00:00 13,6 10,5 - - 34 18 70 38 SW 997,6 10 0,0
20.03.2017 11:00:00 12,9 10,8 - - 42 23 59 32 SW 998,6 35 0,0
20.03.2017 10:00:00 12,6 10,7 - - 39 21 57 31 SSW 999,2 30 0,0
20.03.2017 09:00:00 11,7 10,4 9,9 8,4 29 16 - - SSW 999,9 50 0,0
20.03.2017 08:00:00 11,2 10,4 - - 28 15 - - SSW 1000,5 24 0,0
20.03.2017 07:00:00 10,7 9,9 - - 26 14 - - SSW 1001,4 30 0,0
20.03.2017 06:00:00 10,7 9,7 - - 26 14 - - SW 1002,1 10 0,6
20.03.2017 05:00:00 10,7 9,5 - - 29 16 - - SW 1002,3 17 0,0
20.03.2017 04:00:00 10,9 9,2 - - 29 16 - - SW 1002,6 45 0,0
20.03.2017 03:00:00 10,8 8,9 - - 28 15 - - SW 1002,6 45 0,0
20.03.2017 02:00:00 11,0 8,9 - - 26 14 - - SW 1003,5 40 0,0
20.03.2017 01:00:00 11,3 9,0 - - 29 16 - - SW 1004,1 45 0,0
20.03.2017 00:00:00 11,3 9,2 - - 26 14 - - SW 1004,7 50 0,0
19.03.2017 23:00:00 11,1 9,3 - - 26 14 - - SW 1004,5 50 0,0
19.03.2017 22:00:00 11,5 9,3 - - 28 15 - - SW 1004,7 35 0,0
19.03.2017 21:00:00 11,8 9,8 - - 28 15 46 25 WSW 1004,8 50 0,0
19.03.2017 20:00:00 12,3 10,1 - - 31 17 - - WSW 1004,8 30 0,2
19.03.2017 19:00:00 12,7 10,0 - - 37 20 46 25 SW 1004,3 40 0,0
19.03.2017 18:00:00 13,6 9,7 - - 29 16 52 28 WSW 1003,8 50 0,0
19.03.2017 17:00:00 14,0 9,6 - - 42 23 65 35 WSW 1003,2 45 0,0
19.03.2017 16:00:00 14,6 9,0 - - 42 23 61 33 WSW 1003,1 35 0,0
19.03.2017 15:00:00 15,4 8,7 - - 46 25 72 39 WSW 1002,9 45 0,0
19.03.2017 14:00:00 15,7 8,4 - - 52 28 74 40 WSW 1003,0 27 0,0
19.03.2017 13:00:00 15,9 8,9 - - 50 27 76 41 WSW 1003,2 45 0,0
19.03.2017 12:00:00 15,6 9,6 - - 48 26 68 37 W 1003,6 30 0,0
19.03.2017 11:00:00 14,1 9,6 - - 41 22 61 33 WSW 1004,0 30 0,0
19.03.2017 10:00:00 12,6 9,1 - - 37 20 54 29 WSW 1004,3 29 0,0
19.03.2017 09:00:00 12,2 8,6 9,4 8,2 42 23 59 32 WSW 1004,6 35 0,0
19.03.2017 08:00:00 11,7 8,5 - - 37 20 52 28 WSW 1004,8 50 0,0
19.03.2017 07:00:00 11,0 8,7 - - 35 19 50 27 WSW 1004,6 35 0,0
19.03.2017 06:00:00 11,0 8,8 - - 35 19 54 29 WSW 1004,8 45 0,0
19.03.2017 05:00:00 11,2 9,2 - - 41 22 57 31 WSW 1004,9 45 0,0
19.03.2017 04:00:00 11,3 9,5 - - 42 23 57 31 WSW 1005,1 26 0,0
19.03.2017 03:00:00 11,6 9,8 - - 39 21 55 30 WSW 1005,7 27 0,0
19.03.2017 02:00:00 12,2 10,1 - - 41 22 54 29 WSW 1006,3 28 0,0
19.03.2017 01:00:00 12,3 10,7 - - 35 19 46 25 WSW 1006,8 28 0,0
19.03.2017 00:00:00 12,1 10,4 - - 29 16 - - WSW 1007,3 30 0,0
18.03.2017 23:00:00 11,9 10,4 - - 28 15 - - WSW 1007,9 20 0,0
18.03.2017 22:00:00 11,6 10,1 - - 18 10 - - SW 1008,3 30 0,0
18.03.2017 21:00:00 11,5 10,3 - - 18 10 - - WSW 1008,7 50 0,0
18.03.2017 20:00:00 11,2 10,5 - - 13 7 - - WSW 1008,6 40 0,0
18.03.2017 19:00:00 11,8 10,5 - - 18 10 - - W 1008,8 50 0,0
18.03.2017 18:00:00 11,7 10,3 - - 16 9 - - W 1008,3 50 0,0
18.03.2017 17:00:00 12,6 10,6 - - 22 12 - - W 1007,9 35 0,0
18.03.2017 16:00:00 12,8 10,7 - - 22 12 - - W 1007,7 45 0,0
18.03.2017 15:00:00 13,3 11,2 - - 22 12 - - W 1007,5 50 0,2
18.03.2017 14:00:00 13,1 10,7 - - 28 15 50 27 WNW 1007,7 5 0,0
18.03.2017 13:00:00 14,4 10,2 - - 29 16 46 25 W 1007,8 50 0,0
18.03.2017 12:00:00 14,5 9,7 - - 34 18 54 29 W 1007,8 45 0,0
18.03.2017 11:00:00 14,1 10,6 - - 35 19 50 27 W 1007,2 35 0,0
18.03.2017 10:00:00 13,3 10,3 - - 29 16 - - W 1006,8 50 0,0
18.03.2017 09:00:00 12,0 9,9 8,5 8,2 26 14 - - W 1006,5 40 0,0
18.03.2017 08:00:00 11,6 9,7 - - 28 15 - - W 1006,3 50 0,0
18.03.2017 07:00:00 11,2 9,4 - - 28 15 - - W 1005,4 50 0,0
18.03.2017 06:00:00 11,5 9,1 - - 24 13 - - W 1005,1 50 0,0
18.03.2017 05:00:00 11,6 8,9 - - 28 15 46 25 W 1004,2 50 0,0
18.03.2017 04:00:00 11,7 8,9 - - 26 14 - - W 1003,5 50 0,0
18.03.2017 03:00:00 11,7 8,8 - - 24 13 46 25 W 1003,2 50 0,0
18.03.2017 02:00:00 11,8 8,6 - - 26 14 48 26 W 1002,8 50 0,0
18.03.2017 01:00:00 10,9 8,5 - - 28 15 46 25 WSW 1003,0 50 0,0
18.03.2017 00:00:00 10,3 7,9 - - 26 14 - - WSW 1003,3 50 0,0
17.03.2017 23:00:00 9,6 7,1 - - 35 19 55 30 SW 1003,4 35 0,0
17.03.2017 22:00:00 9,4 6,7 - - 42 23 63 34 WSW 1004,3 50 0,0
17.03.2017 21:00:00 9,1 6,1 - - 44 24 63 34 SW 1004,7 50 0,0
17.03.2017 20:00:00 8,7 5,7 - - 42 23 61 33 SW 1005,9 45 0,0
17.03.2017 19:00:00 8,5 5,5 - - 42 23 63 34 SW 1006,8 30 0,0
17.03.2017 18:00:00 8,9 5,1 - - 46 25 63 34 SW 1008,7 35 0,0
17.03.2017 17:00:00 9,2 4,7 - - 41 22 59 32 SW 1010,1 35 0,0
17.03.2017 16:00:00 9,0 4,6 - - 35 19 61 33 SW 1011,4 30 0,0
17.03.2017 15:00:00 9,3 4,5 - - 41 22 59 32 WSW 1013,0 30 0,0
17.03.2017 14:00:00 9,7 4,5 - - 41 22 59 32 WSW 1013,8 23 0,0

tt = temperature
td = dewpoint
tt -20cm = temperature -20cm
tt -100cm = temperature -100cm
ff = wind speed
fx = gusts
dd = wind direction
ppp = reduced air pressure
vv = visibility
rr = precipitation

Next stations